Weather History for Nasa Shuttle, FL

Change the Weather History Date:

Tuesday, October 2, 2012

  Actual Average Record
Temperature  
Mean Temperature 80 °F -  
Max Temperature 87 °F 81 °F 87 °F (1998)
Min Temperature 73 °F 70 °F 60 °F (2001)
Cooling Degree Days 15    
Growing Degree Days 30 (Base 50)    
Moisture  
Dew Point 75 °F    
Average Humidity 90    
Maximum Humidity 100    
Minimum Humidity 65    
Precipitation  
Precipitation 0.36 in - - ()
Sea Level Pressure  
Sea Level Pressure 29.91 in    
Wind  
Wind Speed 9 mph (SSW)    
Max Wind Speed 17 mph    
Max Gust Speed 23 mph    
Visibility 9 miles    
Events Rain , Thunderstorm    
Averages and records for this station are not official NWS values.
T = Trace of Precipitation, MM = Missing Value Source: NWS Daily Summary

Daily Weather History Graph

Daily Weather History Graph

Search for Another Location

Airport:

Trip Planner

Search our weather history database for the weather conditions in past years. The results will help you decide how hot, cold, wet, or windy it might be!

Date:

Astronomy

Oct. 02, 2012 Rise Set
Actual Time 7:16 AM EDT 7:06 PM EDT
Civil Twilight 6:52 AM EDT 7:30 PM EDT
Nautical Twilight 6:25 AM EDT 7:57 PM EDT
Astronomical Twilight 5:58 AM EDT 8:25 PM EDT
Moon 8:35 PM EDT (10/2) 9:26 AM EDT (10/2)
Length of Visible Light 12h 37m
Length of Day
11h 50m
Waning Gibbous, 94% of the Moon is Illuminated
Oct 2
Waning Gibbous
Oct 8
Last Quarter
Oct 15
New
Oct 21
First Quarter
Oct 29
Full

Hourly Weather History & Observations

Time (EDT) Temp. Heat Index Dew Point Humidity Pressure Visibility Wind Dir Wind Speed Gust Speed Precip Events Conditions
12:04 AM 77.0 °F - 75.2 °F 94% 29.83 in 10.0 mi SSW 8.1 mph - N/A   Clear
12:06 AM 77.0 °F - 75.2 °F 94% 29.83 in 10.0 mi SSW 9.2 mph - N/A   Light Drizzle
12:22 AM 77.0 °F - 75.2 °F 94% 29.83 in 10.0 mi SSW 6.9 mph - N/A   Scattered Clouds
12:55 AM 77.0 °F - 75.2 °F 94% 29.83 in 10.0 mi SSW 8.1 mph - 0.00 in   Overcast
1:55 AM 76.5 °F - 75.0 °F 95% 29.83 in 10.0 mi South 6.9 mph - N/A   Overcast
2:55 AM 76.6 °F - 75.4 °F 96% 29.84 in 10.0 mi South 5.8 mph - N/A   Mostly Cloudy
3:13 AM 77.0 °F - 75.2 °F 94% 29.84 in 10.0 mi South 5.8 mph - N/A   Light Drizzle
3:21 AM 77.0 °F - 75.2 °F 94% 29.83 in 10.0 mi South 5.8 mph - N/A   Scattered Clouds
3:28 AM 77.0 °F - 75.2 °F 94% 29.83 in 10.0 mi SSW 6.9 mph - N/A Rain Light Rain
3:44 AM 77.0 °F - 75.2 °F 94% 29.83 in 10.0 mi South 6.9 mph - N/A   Mostly Cloudy
3:55 AM 76.6 °F - 75.4 °F 96% 29.83 in 10.0 mi SSW 8.1 mph - 0.00 in   Mostly Cloudy
4:55 AM 76.6 °F - 75.7 °F 97% 29.84 in 10.0 mi SSW 10.4 mph - N/A   Mostly Cloudy
5:26 AM 77.0 °F - 75.2 °F 94% 29.85 in 10.0 mi SSW 10.4 mph - N/A   Mostly Cloudy
5:29 AM 77.0 °F - 75.2 °F 94% 29.85 in 10.0 mi SSW 10.4 mph - N/A   Mostly Cloudy
5:31 AM 77.0 °F - 75.2 °F 94% 29.85 in 10.0 mi SSW 10.4 mph - N/A Rain Light Rain
5:38 AM 77.0 °F - 75.2 °F 94% 29.85 in 10.0 mi SSW 11.5 mph - N/A Rain Light Rain
5:41 AM 77.0 °F - 75.2 °F 94% 29.85 in 10.0 mi SSW 11.5 mph - N/A   Light Drizzle
5:50 AM 77.0 °F - 75.2 °F 94% 29.85 in 10.0 mi South 10.4 mph - N/A   Mostly Cloudy
5:55 AM 76.6 °F - 75.4 °F 96% 29.85 in 10.0 mi SSW 9.2 mph - 0.00 in   Mostly Cloudy
6:23 AM 77.0 °F - 75.2 °F 94% 29.86 in 10.0 mi South 8.1 mph - N/A   Mostly Cloudy
6:55 AM 76.6 °F - 75.4 °F 96% 29.87 in 10.0 mi SSW 10.4 mph - N/A   Overcast
7:52 AM 77.0 °F - 75.2 °F 94% 29.89 in 10.0 mi SSW 10.4 mph - N/A   Mostly Cloudy
7:55 AM 77.0 °F - 75.2 °F 94% 29.89 in 10.0 mi SSW 8.1 mph - N/A   Mostly Cloudy
8:02 AM 77.0 °F - 75.2 °F 94% 29.89 in 10.0 mi SSW 5.8 mph - N/A   Mostly Cloudy
8:55 AM 78.1 °F - 75.6 °F 92% 29.92 in 10.0 mi SSW 10.4 mph - N/A   Scattered Clouds
9:55 AM 80.8 °F 86.5 °F 75.0 °F 83% 29.94 in 10.0 mi SSW 11.5 mph - N/A   Mostly Cloudy
10:55 AM 82.8 °F 90.1 °F 75.2 °F 78% 29.94 in 10.0 mi SSW 15.0 mph 21.9 mph N/A   Partly Cloudy
11:55 AM 85.1 °F 93.7 °F 75.0 °F 72% 29.95 in 10.0 mi SSW 13.8 mph 20.7 mph N/A   Partly Cloudy
12:36 PM 84.2 °F 92.3 °F 75.2 °F 74% 29.95 in 10.0 mi SW 16.1 mph - N/A   Light Drizzle
12:45 PM 84.2 °F 92.3 °F 75.2 °F 74% 29.94 in 10.0 mi SSW 13.8 mph - N/A   Mostly Cloudy
12:55 PM 83.8 °F 91.4 °F 74.8 °F 74% 29.94 in 10.0 mi SSW 12.7 mph - 0.00 in   Mostly Cloudy
1:29 PM 84.2 °F 92.3 °F 75.2 °F 74% 29.93 in 10.0 mi SSW 12.7 mph - N/A Rain Light Rain
1:55 PM 83.7 °F 91.7 °F 75.4 °F 76% 29.92 in 10.0 mi SSW 10.4 mph - 0.00 in   Light Drizzle
2:02 PM 84.2 °F 92.3 °F 75.2 °F 74% 29.92 in 10.0 mi SSW 10.4 mph - N/A   Mostly Cloudy
2:55 PM 86.2 °F 94.6 °F 74.7 °F 68% 29.91 in 10.0 mi SSW 11.5 mph 18.4 mph 0.00 in   Clear
3:55 PM 87.3 °F 95.8 °F 74.3 °F 65% 29.90 in 10.0 mi South 9.2 mph - N/A   Partly Cloudy
4:37 PM 84.2 °F 90.9 °F 73.4 °F 70% 29.91 in 10.0 mi South 8.1 mph - N/A Rain Light Rain
4:48 PM 80.6 °F 85.4 °F 73.4 °F 79% 29.92 in 10.0 mi South 15.0 mph 19.6 mph N/A Rain , Thunderstorm Light Thunderstorms and Rain
4:55 PM 77.4 °F - 72.9 °F 86% 29.93 in 10.0 mi South 12.7 mph 19.6 mph 0.02 in Rain , Thunderstorm Light Thunderstorms and Rain
5:22 PM 77.0 °F - 75.2 °F 94% 29.94 in 10.0 mi South 9.2 mph - N/A Thunderstorm Thunderstorm
5:24 PM 77.0 °F - 75.2 °F 94% 29.95 in 10.0 mi South 9.2 mph - N/A Rain , Thunderstorm Light Thunderstorms and Rain
5:27 PM 77.0 °F - 75.2 °F 94% 29.96 in 10.0 mi SSW 12.7 mph - N/A Rain , Thunderstorm Light Rain
5:33 PM 75.2 °F - 73.4 °F 94% 29.96 in 6.0 mi SW 17.3 mph 23.0 mph N/A Rain Light Rain
5:36 PM 75.2 °F - 73.4 °F 94% 29.96 in 4.0 mi SW 12.7 mph 23.0 mph N/A Rain Heavy Rain
5:41 PM 75.2 °F - 71.6 °F 89% 29.96 in 2.5 mi SW 9.2 mph 23.0 mph N/A Rain Heavy Rain
5:44 PM 73.4 °F - 71.6 °F 94% 29.96 in 1.8 mi SW 10.4 mph - N/A Rain Heavy Rain
5:55 PM 73.6 °F - 71.8 °F 94% 29.96 in 1.5 mi West 3.5 mph - 0.25 in Rain Light Rain
5:57 PM 73.4 °F - 71.6 °F 94% 29.96 in 2.0 mi Calm Calm - N/A Rain Light Rain
5:59 PM 73.4 °F - 71.6 °F 94% 29.96 in 4.0 mi Calm Calm - N/A Rain Light Rain
6:23 PM 73.4 °F - 73.4 °F 100% 29.97 in 10.0 mi Calm Calm - N/A   Mostly Cloudy
6:55 PM 74.7 °F - 73.6 °F 96% 29.97 in 10.0 mi SE 3.5 mph - 0.01 in   Mostly Cloudy
7:00 PM 75.2 °F - 73.4 °F 94% 29.97 in 10.0 mi SE 3.5 mph - N/A   Light Drizzle
7:14 PM 75.2 °F - 73.4 °F 94% 29.97 in 10.0 mi Calm Calm - N/A   Overcast
7:55 PM 74.8 °F - 73.9 °F 97% 29.98 in 10.0 mi South 4.6 mph - 0.00 in   Overcast
8:55 PM 75.9 °F - 75.4 °F 98% 30.01 in 10.0 mi South 5.8 mph - N/A   Overcast
9:11 PM 75.2 °F - 75.2 °F 100% 30.02 in 10.0 mi South 8.1 mph - N/A Rain Light Rain
9:55 PM 75.2 °F - 74.7 °F 98% 30.03 in 10.0 mi SSW 6.9 mph - 0.08 in Rain Light Rain
10:09 PM 75.2 °F - 75.2 °F 100% 30.04 in 10.0 mi WSW 6.9 mph - N/A   Overcast
10:55 PM 75.4 °F - 74.5 °F 97% 30.04 in 10.0 mi SW 6.9 mph - 0.00 in   Mostly Cloudy
11:55 PM 75.2 °F - 73.9 °F 96% 30.05 in 10.0 mi SSW 5.8 mph - N/A   Overcast